GW7008 Weather Reports


time (UTC)temp
C
wind
direction
speed
KPH
gust
KPH
rain 1hr
cm
rain 24hr
cm
rain mn
cm
humidity
%
barometer
mb
20260505223020 24 117 0.0 3.2 0.00 0.00 0.00 45 1013.3
20260505221522 24 115 0.0 3.2 0.00 0.00 0.00 43 1013.2
20260505220044 24 150 1.6 4.8 0.00 0.00 0.00 40 1013.3
20260505214532 25 126 0.0 4.8 0.00 0.00 0.00 39 1013.3
20260505213021 25 143 1.6 4.8 0.00 0.00 0.00 40 1013.3
20260505211520 26 139 1.6 3.2 0.00 0.00 0.00 42 1013.5
20260505210024 25 56 1.6 4.8 0.00 0.00 0.00 40 1013.4
20260505204527 25 160 1.6 4.8 0.00 0.00 0.00 39 1013.5
20260505203026 25 132 1.6 3.2 0.00 0.00 0.00 41 1013.7
20260505201519 25 173 0.0 4.8 0.00 0.00 0.00 40 1013.8
20260505200024 26 359 1.6 6.4 0.00 0.00 0.00 37 1014.0
20260505194525 26 127 1.6 6.4 0.00 0.00 0.00 39 1014.1
20260505193034 26 132 1.6 3.2 0.00 0.00 0.00 38 1014.2
20260505191522 26 71 1.6 3.2 0.00 0.00 0.00 38 1014.3
20260505190023 26 105 1.6 3.2 0.00 0.00 0.00 40 1014.4
20260505184504 25 116 0.0 4.8 0.00 0.00 0.00 42 1014.5
20260505183012 25 2 1.6 4.8 0.00 0.00 0.00 39 1014.9
20260505181515 26 72 1.6 4.8 0.00 0.00 0.00 38 1015.0
20260505180004 26 81 0.0 3.2 0.00 0.00 0.00 41 1015.3
20260505174505 25 27 3.2 8.0 0.00 0.00 0.00 37 1015.5
20260505173006 25 145 1.6 6.4 0.00 0.00 0.00 42 1015.6
20260505171513 25 147 0.0 3.2 0.00 0.00 0.00 42 1015.7
20260505170017 24 143 1.6 3.2 0.00 0.00 0.00 44 1015.5
20260505164506 22 124 1.6 8.0 0.00 0.00 0.00 50 1015.8
20260505163008 22 127 3.2 9.7 0.00 0.00 0.00 45 1015.8
20260505161512 22 20 3.2 9.7 0.00 0.00 0.00 45 1015.9
20260505153005 20 238 0.0 4.8 0.00 0.00 0.00 59 1016.0
20260505151509 20 356 1.6 4.8 0.00 0.00 0.00 60 1016.4
20260505124521 13 53 0.0 3.2 0.00 0.00 0.00 77 1015.5
20260505123021 11 95 0.0 1.6 0.00 0.00 0.00 82 1015.5
20260505121524 11 106 0.0 0.0 0.00 0.00 0.00 85 1015.7
20260505120007 10 105 0.0 0.0 0.00 0.00 0.00 86 1015.5
20260505114515 10 109 0.0 0.0 0.00 0.00 0.00 84 1015.2
20260505113018 10 109 0.0 0.0 0.00 0.00 0.00 84 1014.9
20260505111520 10 109 0.0 0.0 0.00 0.00 0.00 82 1014.9
20260505101520 11 109 0.0 1.6 0.00 0.00 0.00 87 1014.7
20260505100024 10 109 1.6 3.2 0.00 0.00 0.00 86 1014.6
20260505094511 10 109 0.0 0.0 0.00 0.00 0.00 82 1014.5
20260505093013 10 109 0.0 0.0 0.00 0.00 0.00 80 1014.4
20260505091517 11 109 0.0 0.0 0.00 0.00 0.00 80 1014.6
20260505090003 11 109 0.0 0.0 0.00 0.00 0.00 78 1014.6
20260505084510 11 109 0.0 0.0 0.00 0.00 0.00 79 1014.6
20260505083010 11 109 0.0 0.0 0.00 0.00 0.00 79 1014.7
20260505081519 12 109 0.0 0.0 0.00 0.00 0.00 78 1014.8
20260505080020 12 109 0.0 0.0 0.00 0.00 0.00 76 1014.7
20260505074507 12 109 0.0 0.0 0.00 0.00 0.00 75 1014.7
20260505073008 12 109 0.0 3.2 0.00 0.00 0.00 73 1014.7
20260505071516 13 109 0.0 3.2 0.00 0.00 0.00 73 1014.6
20260505070016 13 109 0.0 1.6 0.00 0.00 0.00 72 1014.5
20260505064521 13 109 0.0 0.0 0.00 0.00 0.00 71 1014.6
20260505063005 13 109 0.0 0.0 0.00 0.00 0.00 71 1014.7
20260505061510 13 109 0.0 0.0 0.00 0.00 0.00 70 1014.9
20260505060014 14 109 0.0 0.0 0.00 0.00 0.00 69 1015.0
20260505054522 14 109 0.0 0.0 0.00 0.00 0.00 66 1014.9
20260505053032 14 109 0.0 0.0 0.00 0.00 0.00 68 1015.0
20260505051516 15 109 0.0 0.0 0.00 0.00 0.00 69 1014.8
20260505041530 15 109 0.0 3.2 0.00 0.00 0.00 69 1014.9
20260505040013 15 109 0.0 0.0 0.00 0.00 0.00 71 1014.9
20260505034524 15 109 0.0 0.0 0.00 0.00 0.00 67 1015.0
20260505033022 15 109 0.0 0.0 0.00 0.00 0.00 68 1015.1
20260505031526 15 109 0.0 0.0 0.00 0.00 0.00 67 1015.0
20260505030026 16 109 0.0 0.0 0.00 0.00 0.00 66 1015.1
20260505024515 16 109 0.0 0.0 0.00 0.00 0.00 66 1015.0
20260505023019 16 109 0.0 0.0 0.00 0.00 0.00 64 1015.1
20260505021523 16 109 0.0 0.0 0.00 0.00 0.00 63 1015.0
20260505020024 17 109 0.0 0.0 0.00 0.00 0.00 63 1014.9
20260505014528 17 109 0.0 0.0 0.00 0.00 0.00 61 1014.7
20260505013020 18 109 0.0 3.2 0.00 0.00 0.00 58 1014.6
20260505011544 18 109 0.0 0.0 0.00 0.00 0.00 56 1014.5
20260505010026 19 109 0.0 0.0 0.00 0.00 0.00 53 1014.4
20260505004507 20 109 0.0 0.0 0.00 0.00 0.00 49 1014.2
20260505003003 20 109 0.0 3.2 0.00 0.00 0.00 49 1013.9
20260505001503 21 109 0.0 1.6 0.00 0.00 0.00 48 1013.8
20260505000004 21 109 0.0 0.0 0.00 0.00 0.00 46 1013.7
20260504234507 21 107 0.0 3.2 0.00 0.00 0.00 45 1013.7
20260504233008 22 94 0.0 3.2 0.00 0.00 0.00 46 1013.7
20260504231504 23 1 0.0 3.2 0.00 0.00 0.00 40 1013.6
20260504230004 23 77 0.0 3.2 0.00 0.00 0.00 40 1013.6
20260504224512 23 77 0.0 3.2 0.00 0.00 0.00 42 1013.5